| time (UTC) | temp F | wind direction | speed knots | gust knots | rain 1hr in | rain 24hr in | rain mn in | humidity % | barometer mb |
| 20260505230219 | 65 | 113 | 1.7 | 3.5 | 0.00 | 0.00 | 0.00 | 67 | 1017.0 |
| 20260505225219 | 65 | 158 | 2.6 | 5.2 | 0.00 | 0.00 | 0.00 | 68 | 1017.0 |
| 20260505224219 | 65 | 158 | 4.3 | 7.8 | 0.00 | 0.00 | 0.00 | 67 | 1017.1 |
| 20260505223239 | 64 | 113 | 1.7 | 3.5 | 0.00 | 0.00 | 0.00 | 69 | 1017.1 |
| 20260505222218 | 65 | 158 | 3.5 | 7.0 | 0.00 | 0.00 | 0.00 | 67 | 1017.3 |
| 20260505221219 | 64 | 203 | 3.5 | 6.1 | 0.00 | 0.00 | 0.00 | 70 | 1017.3 |
| 20260505220219 | 64 | 203 | 3.5 | 6.1 | 0.00 | 0.00 | 0.00 | 68 | 1017.4 |
| 20260505215218 | 62 | 135 | 2.6 | 5.2 | 0.00 | 0.00 | 0.00 | 73 | 1017.4 |
| 20260505214219 | 61 | 135 | 1.7 | 4.3 | 0.00 | 0.00 | 0.00 | 74 | 1017.4 |
| 20260505213219 | 61 | 158 | 2.6 | 4.3 | 0.00 | 0.00 | 0.00 | 73 | 1017.4 |
| 20260505212219 | 61 | 158 | 3.5 | 6.1 | 0.00 | 0.00 | 0.00 | 73 | 1017.5 |
| 20260505211219 | 61 | 180 | 5.2 | 7.8 | 0.00 | 0.00 | 0.00 | 73 | 1017.4 |
| 20260505210219 | 60 | 158 | 1.7 | 3.5 | 0.00 | 0.00 | 0.00 | 73 | 1017.4 |
| 20260505205219 | 60 | 158 | 3.5 | 5.2 | 0.00 | 0.00 | 0.00 | 75 | 1017.5 |
| 20260505204219 | 60 | 203 | 4.3 | 7.8 | 0.00 | 0.00 | 0.00 | 75 | 1017.5 |
| 20260505203259 | 59 | 180 | 2.6 | 3.5 | 0.00 | 0.00 | 0.00 | 76 | 1017.6 |
| 20260505202218 | 58 | 203 | 4.3 | 5.2 | 0.00 | 0.00 | 0.00 | 77 | 1017.6 |
| 20260505201219 | 58 | 225 | 3.5 | 6.1 | 0.00 | 0.00 | 0.00 | 77 | 1017.6 |
| 20260505200219 | 58 | 180 | 3.5 | 5.2 | 0.00 | 0.00 | 0.00 | 77 | 1017.5 |
| 20260505195219 | 58 | 203 | 4.3 | 7.8 | 0.00 | 0.00 | 0.00 | 78 | 1017.6 |
| 20260505194240 | 57 | 203 | 4.3 | 6.1 | 0.00 | 0.00 | 0.00 | 78 | 1017.5 |
| 20260505193218 | 58 | 225 | 3.5 | 4.3 | 0.00 | 0.00 | 0.00 | 78 | 1017.5 |
| 20260505192219 | 57 | 225 | 3.5 | 7.0 | 0.00 | 0.00 | 0.00 | 78 | 1017.5 |
| 20260505191239 | 57 | 180 | 2.6 | 4.3 | 0.00 | 0.00 | 0.00 | 78 | 1017.5 |
| 20260505190219 | 57 | 225 | 3.5 | 6.1 | 0.00 | 0.00 | 0.00 | 78 | 1017.5 |
| 20260505185221 | 57 | 203 | 4.3 | 6.1 | 0.00 | 0.00 | 0.00 | 79 | 1017.4 |
| 20260505184219 | 57 | 203 | 1.7 | 3.5 | 0.00 | 0.00 | 0.00 | 79 | 1017.3 |
| 20260505183218 | 57 | 180 | 2.6 | 4.3 | 0.00 | 0.00 | 0.00 | 79 | 1017.3 |
| 20260505182259 | 57 | 180 | 4.3 | 7.0 | 0.00 | 0.00 | 0.00 | 80 | 1017.3 |
| 20260505181219 | 56 | 203 | 3.5 | 6.1 | 0.00 | 0.00 | 0.00 | 81 | 1017.3 |
| 20260505180218 | 56 | 180 | 4.3 | 7.0 | 0.00 | 0.00 | 0.00 | 81 | 1017.3 |
| 20260505175218 | 56 | 180 | 4.3 | 7.8 | 0.00 | 0.00 | 0.00 | 81 | 1017.3 |
| 20260505174218 | 56 | 203 | 4.3 | 7.0 | 0.00 | 0.00 | 0.00 | 81 | 1017.3 |
| 20260505173218 | 56 | 180 | 4.3 | 7.0 | 0.00 | 0.00 | 0.00 | 81 | 1017.3 |
| 20260505172218 | 55 | 203 | 3.5 | 4.3 | 0.00 | 0.00 | 0.00 | 82 | 1017.3 |
| 20260505171219 | 55 | 225 | 2.6 | 7.0 | 0.00 | 0.00 | 0.00 | 82 | 1017.2 |
| 20260505170220 | 55 | 158 | 1.7 | 4.3 | 0.00 | 0.00 | 0.00 | 82 | 1017.2 |
| 20260505165218 | 55 | 158 | 2.6 | 4.3 | 0.00 | 0.00 | 0.00 | 82 | 1017.2 |
| 20260505164219 | 55 | 180 | 3.5 | 6.1 | 0.00 | 0.00 | 0.00 | 82 | 1017.1 |
| 20260505163218 | 55 | 180 | 3.5 | 6.1 | 0.00 | 0.00 | 0.00 | 82 | 1017.1 |
| 20260505162218 | 55 | 158 | 5.2 | 7.0 | 0.00 | 0.00 | 0.00 | 83 | 1017.0 |
| 20260505161218 | 55 | 158 | 4.3 | 7.8 | 0.00 | 0.00 | 0.00 | 83 | 1017.1 |
| 20260505160241 | 54 | 203 | 4.3 | 7.0 | 0.00 | 0.00 | 0.00 | 83 | 1017.0 |
| 20260505153240 | 54 | 158 | 3.5 | 6.1 | 0.00 | 0.00 | 0.00 | 84 | 1017.0 |
| 20260505152219 | 54 | 180 | 6.1 | 8.7 | 0.00 | 0.00 | 0.00 | 84 | 1016.9 |
| 20260505151239 | 54 | 180 | 3.5 | 7.0 | 0.00 | 0.00 | 0.00 | 84 | 1016.8 |
| 20260505150220 | 54 | 180 | 2.6 | 6.1 | 0.00 | 0.00 | 0.00 | 84 | 1016.7 |
| 20260505140220 | 54 | 158 | 5.2 | 7.0 | 0.00 | 0.00 | 0.00 | 83 | 1016.2 |
| 20260505130218 | 54 | 180 | 2.6 | 4.3 | 0.00 | 0.00 | 0.00 | 85 | 1015.5 |
| 20260505124228 | 54 | 180 | 4.3 | 7.8 | 0.00 | 0.00 | 0.00 | 85 | 1015.3 |
| 20260505123226 | 54 | 203 | 4.3 | 6.1 | 0.00 | 0.00 | 0.00 | 85 | 1015.3 |
| 20260505122226 | 54 | 203 | 3.5 | 7.8 | 0.00 | 0.00 | 0.00 | 85 | 1015.2 |
| 20260505121228 | 54 | 180 | 5.2 | 8.7 | 0.00 | 0.00 | 0.00 | 85 | 1015.0 |
| 20260505120220 | 54 | 158 | 3.5 | 7.8 | 0.00 | 0.00 | 0.00 | 85 | 1015.0 |
| 20260505115218 | 54 | 203 | 3.5 | 5.2 | 0.00 | 0.00 | 0.00 | 86 | 1014.9 |
| 20260505114220 | 54 | 158 | 1.7 | 3.5 | 0.00 | 0.00 | 0.00 | 86 | 1014.8 |
| 20260505113220 | 53 | 180 | 2.6 | 4.3 | 0.00 | 0.00 | 0.00 | 86 | 1014.8 |
| 20260505112220 | 54 | 203 | 3.5 | 7.0 | 0.00 | 0.00 | 0.00 | 86 | 1014.8 |
| 20260505111220 | 54 | 203 | 4.3 | 7.0 | 0.00 | 0.00 | 0.00 | 86 | 1014.8 |
| 20260505110220 | 53 | 203 | 3.5 | 6.1 | 0.00 | 0.00 | 0.00 | 86 | 1014.8 |
| 20260505102220 | 53 | 135 | 2.6 | 7.0 | 0.00 | 0.00 | 0.00 | 86 | 1014.4 |
| 20260505101218 | 53 | 158 | 2.6 | 4.3 | 0.00 | 0.00 | 0.00 | 86 | 1014.5 |
| 20260505100240 | 53 | 203 | 3.5 | 12.2 | 0.00 | 0.00 | 0.00 | 86 | 1014.5 |
| 20260505095220 | 53 | 180 | 5.2 | 11.3 | 0.00 | 0.00 | 0.00 | 86 | 1014.5 |
| 20260505094220 | 53 | 158 | 4.3 | 7.8 | 0.00 | 0.00 | 0.00 | 86 | 1014.3 |
| 20260505093226 | 53 | 203 | 6.1 | 8.7 | 0.00 | 0.00 | 0.00 | 86 | 1014.2 |
| 20260505092226 | 54 | 180 | 1.7 | 2.6 | 0.00 | 0.00 | 0.00 | 86 | 1014.1 |
| 20260505091226 | 54 | 158 | 5.2 | 10.4 | 0.00 | 0.00 | 0.00 | 86 | 1014.0 |
| 20260505090248 | 54 | 180 | 3.5 | 7.0 | 0.00 | 0.00 | 0.00 | 86 | 1013.9 |
| 20260505085226 | 54 | 203 | 2.6 | 5.2 | 0.00 | 0.00 | 0.00 | 86 | 1013.9 |
| 20260505084219 | 54 | 180 | 3.5 | 7.0 | 0.00 | 0.00 | 0.00 | 86 | 1013.8 |
| 20260505083240 | 54 | 158 | 4.3 | 7.0 | 0.00 | 0.00 | 0.00 | 85 | 1013.8 |
| 20260505082220 | 54 | 180 | 2.6 | 3.5 | 0.00 | 0.00 | 0.00 | 85 | 1013.7 |
| 20260505081220 | 54 | 203 | 6.1 | 8.7 | 0.00 | 0.00 | 0.00 | 85 | 1013.8 |
| 20260505080220 | 55 | 180 | 2.6 | 5.2 | 0.00 | 0.00 | 0.00 | 84 | 1013.7 |
| 20260505075220 | 55 | 158 | 2.6 | 3.5 | 0.00 | 0.00 | 0.00 | 84 | 1013.8 |
| 20260505074219 | 55 | 135 | 3.5 | 7.8 | 0.00 | 0.00 | 0.00 | 83 | 1013.7 |
| 20260505073220 | 55 | 158 | 2.6 | 3.5 | 0.00 | 0.00 | 0.00 | 83 | 1013.6 |
| 20260505072219 | 56 | 180 | 4.3 | 7.8 | 0.00 | 0.00 | 0.00 | 83 | 1013.4 |
| 20260505071219 | 56 | 180 | 3.5 | 5.2 | 0.00 | 0.00 | 0.00 | 82 | 1013.3 |
| 20260505070220 | 56 | 203 | 4.3 | 6.1 | 0.00 | 0.00 | 0.00 | 82 | 1013.3 |
| 20260505065239 | 56 | 203 | 4.3 | 8.7 | 0.00 | 0.00 | 0.00 | 81 | 1013.2 |
| 20260505064220 | 57 | 180 | 5.2 | 8.7 | 0.00 | 0.00 | 0.00 | 81 | 1013.3 |
| 20260505063219 | 57 | 180 | 3.5 | 7.8 | 0.00 | 0.00 | 0.00 | 80 | 1013.0 |
| 20260505062219 | 58 | 158 | 4.3 | 7.8 | 0.00 | 0.00 | 0.00 | 79 | 1012.9 |
| 20260505061219 | 58 | 180 | 2.6 | 4.3 | 0.00 | 0.00 | 0.00 | 78 | 1012.7 |
| 20260505060219 | 59 | 180 | 5.2 | 7.8 | 0.00 | 0.00 | 0.00 | 78 | 1012.4 |
| 20260505055220 | 59 | 180 | 2.6 | 5.2 | 0.00 | 0.00 | 0.00 | 77 | 1012.5 |
| 20260505054219 | 59 | 158 | 3.5 | 6.1 | 0.00 | 0.00 | 0.00 | 77 | 1012.4 |
| 20260505053239 | 60 | 158 | 2.6 | 4.3 | 0.00 | 0.00 | 0.00 | 76 | 1012.2 |
| 20260505052239 | 60 | 180 | 3.5 | 4.3 | 0.00 | 0.00 | 0.00 | 76 | 1012.3 |
| 20260505051240 | 61 | 180 | 2.6 | 4.3 | 0.00 | 0.00 | 0.00 | 75 | 1012.1 |
| 20260505050219 | 61 | 180 | 2.6 | 3.5 | 0.00 | 0.00 | 0.00 | 74 | 1012.1 |
| 20260505041219 | 64 | 180 | 5.2 | 6.1 | 0.00 | 0.00 | 0.00 | 70 | 1011.5 |
| 20260505040239 | 65 | 203 | 3.5 | 6.1 | 0.00 | 0.00 | 0.00 | 69 | 1011.4 |
| 20260505035240 | 66 | 203 | 3.5 | 4.3 | 0.00 | 0.00 | 0.00 | 67 | 1011.2 |
| 20260505034219 | 67 | 180 | 2.6 | 3.5 | 0.00 | 0.00 | 0.00 | 66 | 1011.1 |
| 20260505033219 | 68 | 180 | 2.6 | 3.5 | 0.00 | 0.00 | 0.00 | 64 | 1010.8 |
| 20260505032219 | 69 | 203 | 3.5 | 5.2 | 0.00 | 0.00 | 0.00 | 62 | 1010.9 |
| 20260505031219 | 70 | 225 | 1.7 | 3.5 | 0.00 | 0.00 | 0.00 | 59 | 1010.7 |
| 20260505030239 | 71 | 315 | 1.7 | 3.5 | 0.00 | 0.00 | 0.00 | 54 | 1010.7 |
| 20260505025220 | 72 | 270 | 1.7 | 3.5 | 0.00 | 0.00 | 0.00 | 53 | 1010.5 |
| 20260505024220 | 73 | 293 | 2.6 | 4.3 | 0.00 | 0.00 | 0.00 | 53 | 1010.4 |
| 20260505023220 | 73 | 293 | 2.6 | 4.3 | 0.00 | 0.00 | 0.00 | 52 | 1010.3 |
| 20260505022219 | 74 | 270 | 3.5 | 6.1 | 0.00 | 0.00 | 0.00 | 52 | 1010.3 |
| 20260505021219 | 74 | 293 | 2.6 | 3.5 | 0.00 | 0.00 | 0.00 | 51 | 1010.4 |
| 20260505020219 | 75 | 270 | 4.3 | 6.1 | 0.00 | 0.00 | 0.00 | 51 | 1010.4 |
| 20260505015219 | 77 | 293 | 2.6 | 3.5 | 0.00 | 0.00 | 0.00 | 50 | 1010.4 |
| 20260505014218 | 78 | 203 | 0.9 | 2.6 | 0.00 | 0.00 | 0.00 | 49 | 1010.3 |
| 20260505013219 | 78 | 180 | 3.5 | 5.2 | 0.00 | 0.00 | 0.00 | 47 | 1010.2 |
| 20260505012218 | 79 | 203 | 2.6 | 3.5 | 0.00 | 0.00 | 0.00 | 46 | 1010.4 |
| 20260505011219 | 79 | 180 | 2.6 | 5.2 | 0.00 | 0.00 | 0.00 | 45 | 1010.4 |
| 20260505010259 | 79 | 180 | 3.5 | 5.2 | 0.00 | 0.00 | 0.00 | 43 | 1010.4 |
| 20260505005219 | 80 | 203 | 3.5 | 4.3 | 0.00 | 0.00 | 0.00 | 42 | 1010.5 |
| 20260505004219 | 80 | 248 | 2.6 | 5.2 | 0.00 | 0.00 | 0.00 | 41 | 1010.5 |
| 20260505003218 | 80 | 248 | 2.6 | 3.5 | 0.00 | 0.00 | 0.00 | 41 | 1010.5 |
| 20260505002219 | 80 | 203 | 1.7 | 3.5 | 0.00 | 0.00 | 0.00 | 40 | 1010.5 |
| 20260505001239 | 81 | 270 | 3.5 | 7.8 | 0.00 | 0.00 | 0.00 | 40 | 1010.6 |
| 20260505000219 | 81 | 158 | 3.5 | 6.1 | 0.00 | 0.00 | 0.00 | 41 | 1010.6 |
| 20260504235219 | 81 | 180 | 5.2 | 7.0 | 0.00 | 0.00 | 0.00 | 40 | 1010.6 |
| 20260504234219 | 81 | 203 | 1.7 | 3.5 | 0.00 | 0.00 | 0.00 | 41 | 1010.7 |
| 20260504233219 | 80 | 180 | 3.5 | 5.2 | 0.00 | 0.00 | 0.00 | 41 | 1010.7 |
| 20260504232219 | 79 | 225 | 4.3 | 6.1 | 0.00 | 0.00 | 0.00 | 41 | 1010.6 |
| 20260504231218 | 80 | 135 | 3.5 | 4.3 | 0.00 | 0.00 | 0.00 | 40 | 1010.7 |